RYR2NQ EGKK-EIDW

Flight info

Callsign RYR2NQ
Flight time 0h 59m
Altitude 32000
Route IMVUR N63 VOUGA N14 BIBPE DCT OKTAD DCT MEDOG DCT KRAGY DCT PEMOB M17 VATRY VATRY4L
Aircraft B738/M-SDE2E3FGHIRWXY/LB1

Departure

Time 2026-05-07 18:30
Airport London Gatwick Airport (EGKK)

Arrival

Time 2026-05-07 19:29
Airport Dublin Airport (EIDW)
Time Latitude Longitude Altitude Speed Heading
2026-05-07 17:56 51.15462 -0.17159 203 ft 0 kts 36°
2026-05-07 17:58 51.15469 -0.17151 203 ft 0 kts 36°
2026-05-07 17:59 51.15462 -0.17159 203 ft 0 kts 36°
2026-05-07 18:14 51.15460 -0.17162 203 ft 3 kts 36°
2026-05-07 18:14 51.15440 -0.17184 203 ft 4 kts 36°
2026-05-07 18:14 51.15423 -0.17204 203 ft 4 kts 50°
2026-05-07 18:14 51.15415 -0.17234 203 ft 4 kts 101°
2026-05-07 18:15 51.15425 -0.17264 207 ft 4 kts 146°
2026-05-07 18:15 51.15446 -0.17277 203 ft 4 kts 167°
2026-05-07 18:15 51.15458 -0.17281 203 ft 0 kts 167°
2026-05-07 18:19 51.15430 -0.17275 206 ft 10 kts 169°
2026-05-07 18:19 51.15385 -0.17258 213 ft 5 kts 165°
2026-05-07 18:19 51.15349 -0.17243 213 ft 5 kts 168°
2026-05-07 18:19 51.15315 -0.17267 212 ft 6 kts 236°
2026-05-07 18:20 51.15305 -0.17358 211 ft 11 kts 264°
2026-05-07 18:20 51.15293 -0.17503 203 ft 16 kts 257°
2026-05-07 18:20 51.15267 -0.17694 208 ft 19 kts 258°
2026-05-07 18:20 51.15236 -0.17923 203 ft 23 kts 256°
2026-05-07 18:21 51.15200 -0.18175 213 ft 23 kts 258°
2026-05-07 18:21 51.15174 -0.18421 214 ft 22 kts 258°
2026-05-07 18:21 51.15140 -0.18658 205 ft 22 kts 257°
2026-05-07 18:21 51.15109 -0.18886 205 ft 21 kts 258°
2026-05-07 18:22 51.15078 -0.19109 207 ft 20 kts 258°
2026-05-07 18:22 51.15057 -0.19258 203 ft 20 kts 257°
2026-05-07 18:22 51.15019 -0.19538 214 ft 19 kts 257°
2026-05-07 18:22 51.14991 -0.19741 207 ft 19 kts 257°
2026-05-07 18:23 51.14964 -0.19938 208 ft 18 kts 257°
2026-05-07 18:23 51.14938 -0.20129 211 ft 17 kts 257°
2026-05-07 18:23 51.14912 -0.20312 212 ft 17 kts 258°
2026-05-07 18:23 51.14888 -0.20489 207 ft 16 kts 258°
2026-05-07 18:24 51.14842 -0.20637 206 ft 15 kts 213°
2026-05-07 18:24 51.14762 -0.20742 204 ft 15 kts 248°
2026-05-07 18:24 51.14739 -0.20901 213 ft 14 kts 258°
2026-05-07 18:24 51.14719 -0.21053 210 ft 14 kts 258°
2026-05-07 18:25 51.14699 -0.21194 209 ft 12 kts 258°
2026-05-07 18:25 51.14671 -0.21318 203 ft 12 kts 217°
2026-05-07 18:25 51.14626 -0.21327 212 ft 5 kts 171°
2026-05-07 18:25 51.14620 -0.21326 203 ft 0 kts 170°
2026-05-07 18:28 51.14599 -0.21319 203 ft 6 kts 167°
2026-05-07 18:28 51.14540 -0.21268 210 ft 14 kts 133°
2026-05-07 18:28 51.14523 -0.21142 207 ft 12 kts 79°
2026-05-07 18:28 51.14537 -0.21042 212 ft 0 kts 78°
2026-05-07 18:29 51.14559 -0.20864 203 ft 49 kts 79°
2026-05-07 18:29 51.14689 -0.19950 212 ft 118 kts 77°
2026-05-07 18:30 51.14904 -0.18388 281 ft 164 kts 79°
2026-05-07 18:30 51.15103 -0.16595 1015 ft 161 kts 82°
2026-05-07 18:30 51.15182 -0.14795 1693 ft 168 kts 87°
2026-05-07 18:30 51.15415 -0.12809 1987 ft 196 kts 75°
2026-05-07 18:31 51.15796 -0.10593 2269 ft 216 kts 75°
2026-05-07 18:31 51.16286 -0.08281 2698 ft 224 kts 59°
2026-05-07 18:31 51.17348 -0.06475 2980 ft 226 kts 35°
2026-05-07 18:31 51.18748 -0.05330 2984 ft 230 kts 15°
2026-05-07 18:32 51.20321 -0.05410 3026 ft 233 kts 346°
2026-05-07 18:32 51.21742 -0.06621 3015 ft 234 kts 315°
2026-05-07 18:32 51.22580 -0.08830 3028 ft 243 kts 283°
2026-05-07 18:32 51.22621 -0.11615 3035 ft 259 kts 260°
2026-05-07 18:33 51.22292 -0.14474 3017 ft 264 kts 258°
2026-05-07 18:33 51.21939 -0.17343 3003 ft 264 kts 258°
2026-05-07 18:33 51.21592 -0.20192 2994 ft 261 kts 258°
2026-05-07 18:33 51.21254 -0.23025 3000 ft 259 kts 258°
2026-05-07 18:34 51.20929 -0.25821 3010 ft 257 kts 258°
2026-05-07 18:34 51.20606 -0.28599 3000 ft 259 kts 258°
2026-05-07 18:34 51.20276 -0.31439 3008 ft 262 kts 258°
2026-05-07 18:34 51.19942 -0.34302 3004 ft 263 kts 258°
2026-05-07 18:35 51.19583 -0.37168 3220 ft 266 kts 257°
2026-05-07 18:35 51.19207 -0.40066 3845 ft 266 kts 257°
2026-05-07 18:35 51.18831 -0.42942 3972 ft 264 kts 257°
2026-05-07 18:35 51.18458 -0.45809 3990 ft 265 kts 257°
2026-05-07 18:36 51.18086 -0.48683 4004 ft 265 kts 257°
2026-05-07 18:36 51.17712 -0.51560 4003 ft 265 kts 257°
2026-05-07 18:36 51.17270 -0.54423 4037 ft 268 kts 249°
2026-05-07 18:36 51.16572 -0.57150 4625 ft 269 kts 245°
2026-05-07 18:37 51.15816 -0.59858 5522 ft 267 kts 245°
2026-05-07 18:37 51.15058 -0.62571 6295 ft 270 kts 245°
2026-05-07 18:37 51.14298 -0.65320 7079 ft 273 kts 245°
2026-05-07 18:37 51.13536 -0.68108 7864 ft 276 kts 246°
2026-05-07 18:38 51.12771 -0.70933 8653 ft 280 kts 246°
2026-05-07 18:38 51.11999 -0.73793 9449 ft 283 kts 246°
2026-05-07 18:38 51.11220 -0.76684 10253 ft 286 kts 246°
2026-05-07 18:38 51.10411 -0.79686 10616 ft 307 kts 246°
2026-05-07 18:39 51.09539 -0.82927 10927 ft 327 kts 246°
2026-05-07 18:39 51.08645 -0.86242 11575 ft 334 kts 246°
2026-05-07 18:39 51.07760 -0.89662 12398 ft 336 kts 252°
2026-05-07 18:39 51.07507 -0.93361 13195 ft 341 kts 275°
2026-05-07 18:40 51.08199 -0.96973 13980 ft 347 kts 298°
2026-05-07 18:40 51.09695 -0.99995 14754 ft 353 kts 319°
2026-05-07 18:40 51.11743 -1.02205 15548 ft 357 kts 327°
2026-05-07 18:40 51.13890 -1.04234 16299 ft 362 kts 328°
2026-05-07 18:41 51.16080 -1.06262 17030 ft 366 kts 328°
2026-05-07 18:41 51.18290 -1.08320 17781 ft 369 kts 328°
2026-05-07 18:41 51.20512 -1.10414 18480 ft 373 kts 328°
2026-05-07 18:41 51.22751 -1.12547 19158 ft 377 kts 328°
2026-05-07 18:42 51.24979 -1.14685 19815 ft 381 kts 328°
2026-05-07 18:42 51.27257 -1.16879 20475 ft 384 kts 327°
2026-05-07 18:42 51.29556 -1.19097 21116 ft 388 kts 327°
2026-05-07 18:42 51.31874 -1.21335 21736 ft 391 kts 327°
2026-05-07 18:43 51.34239 -1.23525 22300 ft 395 kts 332°
2026-05-07 18:43 51.36797 -1.25227 22855 ft 400 kts 338°
2026-05-07 18:43 51.39429 -1.26749 23434 ft 403 kts 339°
2026-05-07 18:43 51.42076 -1.28266 23979 ft 407 kts 339°
2026-05-07 18:44 51.44747 -1.29828 24511 ft 410 kts 338°
2026-05-07 18:44 51.47389 -1.31412 25016 ft 412 kts 338°
2026-05-07 18:44 51.50077 -1.33043 25523 ft 415 kts 338°
2026-05-07 18:44 51.52789 -1.34693 26033 ft 417 kts 338°
2026-05-07 18:45 51.55496 -1.36322 26655 ft 415 kts 338°
2026-05-07 18:45 51.58167 -1.38033 27319 ft 411 kts 331°
2026-05-07 18:45 51.60504 -1.40607 27932 ft 406 kts 315°
2026-05-07 18:45 51.62351 -1.44005 28507 ft 402 kts 302°
2026-05-07 18:46 51.63723 -1.47906 29085 ft 399 kts 296°
2026-05-07 18:46 51.64975 -1.51875 29631 ft 397 kts 295°
2026-05-07 18:46 51.66228 -1.55847 30129 ft 397 kts 296°
2026-05-07 18:46 51.67502 -1.59782 30648 ft 396 kts 296°
2026-05-07 18:47 51.68789 -1.63704 31146 ft 395 kts 296°
2026-05-07 18:47 51.69941 -1.67644 31597 ft 394 kts 289°
2026-05-07 18:47 51.70692 -1.71882 31990 ft 394 kts 279°
2026-05-07 18:48 51.71315 -1.80637 32023 ft 392 kts 275°
2026-05-07 18:48 51.72099 -1.89313 32032 ft 392 kts 282°
2026-05-07 18:49 51.73412 -1.97869 32032 ft 393 kts 283°
2026-05-07 18:49 51.74737 -2.06376 32030 ft 394 kts 283°
2026-05-07 18:50 51.76031 -2.14984 32028 ft 394 kts 282°
2026-05-07 18:50 51.77299 -2.23597 32017 ft 394 kts 282°
2026-05-07 18:51 51.78557 -2.32201 32015 ft 393 kts 282°
2026-05-07 18:51 51.79798 -2.40727 32021 ft 392 kts 282°
2026-05-07 18:52 51.81039 -2.49306 32019 ft 392 kts 282°
2026-05-07 18:52 51.82262 -2.57879 32018 ft 392 kts 281°
2026-05-07 18:53 51.83426 -2.66485 32020 ft 392 kts 281°
2026-05-07 18:53 51.84598 -2.75033 32018 ft 392 kts 281°
2026-05-07 18:54 51.85732 -2.83659 32023 ft 393 kts 281°
2026-05-07 18:54 51.86873 -2.92314 32017 ft 394 kts 281°
2026-05-07 18:55 51.88018 -3.00981 32020 ft 395 kts 281°
2026-05-07 18:55 51.89163 -3.09682 32021 ft 395 kts 281°
2026-05-07 18:56 51.90294 -3.18326 32021 ft 395 kts 281°
2026-05-07 18:56 51.91425 -3.27035 32015 ft 395 kts 280°
2026-05-07 18:57 51.92548 -3.35726 32015 ft 394 kts 280°
2026-05-07 18:57 51.93664 -3.44413 32014 ft 393 kts 280°
2026-05-07 18:58 51.94763 -3.53020 32006 ft 392 kts 280°
2026-05-07 18:58 51.95863 -3.61683 32012 ft 392 kts 280°
2026-05-07 18:59 51.96961 -3.70338 32008 ft 392 kts 280°
2026-05-07 18:59 51.98054 -3.78999 32013 ft 393 kts 280°
2026-05-07 19:00 51.99135 -3.87632 32009 ft 393 kts 280°
2026-05-07 19:00 52.00217 -3.96332 32007 ft 394 kts 280°
2026-05-07 19:01 52.01292 -4.05029 31881 ft 391 kts 280°
2026-05-07 19:01 52.01823 -4.09335 31626 ft 385 kts 280°
2026-05-07 19:01 52.02343 -4.13573 31272 ft 382 kts 280°
2026-05-07 19:01 52.02850 -4.17726 30932 ft 379 kts 279°
2026-05-07 19:02 52.03359 -4.21902 30585 ft 376 kts 279°
2026-05-07 19:02 52.03862 -4.26044 30227 ft 373 kts 279°
2026-05-07 19:02 52.04363 -4.30174 29876 ft 371 kts 279°
2026-05-07 19:02 52.04858 -4.34272 29499 ft 369 kts 279°
2026-05-07 19:03 52.05348 -4.38353 29116 ft 367 kts 279°
2026-05-07 19:03 52.05834 -4.42400 28742 ft 364 kts 279°
2026-05-07 19:03 52.06311 -4.46380 28371 ft 362 kts 279°
2026-05-07 19:03 52.06787 -4.50379 27998 ft 360 kts 279°
2026-05-07 19:04 52.07261 -4.54366 27626 ft 358 kts 279°
2026-05-07 19:04 52.07732 -4.58332 27251 ft 357 kts 279°
2026-05-07 19:04 52.08201 -4.62277 26885 ft 355 kts 279°
2026-05-07 19:04 52.08663 -4.66205 26518 ft 353 kts 279°
2026-05-07 19:05 52.09121 -4.70113 26148 ft 351 kts 279°
2026-05-07 19:05 52.09576 -4.74005 25781 ft 349 kts 279°
2026-05-07 19:05 52.10028 -4.77874 25418 ft 347 kts 279°
2026-05-07 19:05 52.10471 -4.81668 25068 ft 345 kts 279°
2026-05-07 19:06 52.10915 -4.85494 24703 ft 344 kts 279°
2026-05-07 19:06 52.11793 -4.93101 23988 ft 340 kts 279°
2026-05-07 19:06 52.12226 -4.96866 23637 ft 338 kts 279°
2026-05-07 19:07 52.12653 -5.00619 23299 ft 336 kts 279°
2026-05-07 19:07 52.13075 -5.04336 22961 ft 334 kts 279°
2026-05-07 19:07 52.13493 -5.08041 22622 ft 332 kts 279°
2026-05-07 19:07 52.13916 -5.11718 22286 ft 330 kts 282°
2026-05-07 19:08 52.14799 -5.15093 21925 ft 332 kts 304°
2026-05-07 19:08 52.16411 -5.17749 21612 ft 332 kts 325°
2026-05-07 19:08 52.18423 -5.19576 21308 ft 330 kts 331°
2026-05-07 19:08 52.20479 -5.21238 20964 ft 329 kts 332°
2026-05-07 19:09 52.22529 -5.22869 20629 ft 328 kts 332°
2026-05-07 19:09 52.24572 -5.24505 20299 ft 326 kts 332°
2026-05-07 19:09 52.26599 -5.26146 19970 ft 325 kts 332°
2026-05-07 19:09 52.28613 -5.27792 19643 ft 323 kts 332°
2026-05-07 19:10 52.30618 -5.29439 19310 ft 322 kts 332°
2026-05-07 19:10 52.32612 -5.31085 18990 ft 320 kts 332°
2026-05-07 19:10 52.34599 -5.32726 18665 ft 319 kts 331°
2026-05-07 19:10 52.36545 -5.34335 18340 ft 317 kts 331°
2026-05-07 19:11 52.38512 -5.35964 18023 ft 316 kts 331°
2026-05-07 19:11 52.40468 -5.37587 17708 ft 314 kts 331°
2026-05-07 19:11 52.42413 -5.39199 17390 ft 313 kts 331°
2026-05-07 19:11 52.44352 -5.40807 17073 ft 311 kts 331°
2026-05-07 19:12 52.46275 -5.42404 16760 ft 309 kts 331°
2026-05-07 19:12 52.48190 -5.43995 16446 ft 307 kts 331°
2026-05-07 19:12 52.50090 -5.45574 16135 ft 306 kts 331°
2026-05-07 19:12 52.51987 -5.47152 15824 ft 304 kts 331°
2026-05-07 19:13 52.53866 -5.48719 15519 ft 302 kts 331°
2026-05-07 19:13 52.55749 -5.50250 15208 ft 302 kts 335°
2026-05-07 19:13 52.57700 -5.51388 14911 ft 301 kts 341°
2026-05-07 19:13 52.59703 -5.52354 14604 ft 300 kts 342°
2026-05-07 19:14 52.61700 -5.53303 14309 ft 298 kts 342°
2026-05-07 19:14 52.63687 -5.54259 13999 ft 297 kts 342°
2026-05-07 19:14 52.65659 -5.55243 13699 ft 297 kts 341°
2026-05-07 19:14 52.67618 -5.56246 13402 ft 294 kts 341°
2026-05-07 19:15 52.69580 -5.57245 13084 ft 295 kts 341°
2026-05-07 19:15 52.71537 -5.58257 12798 ft 295 kts 341°
2026-05-07 19:15 52.73476 -5.59280 12583 ft 290 kts 341°
2026-05-07 19:15 52.75395 -5.60280 12287 ft 289 kts 341°
2026-05-07 19:16 52.77283 -5.61259 12001 ft 288 kts 341°
2026-05-07 19:16 52.79190 -5.62246 11709 ft 287 kts 341°
2026-05-07 19:16 52.81091 -5.63235 11406 ft 286 kts 341°
2026-05-07 19:16 52.82979 -5.64231 11102 ft 285 kts 341°
2026-05-07 19:17 52.84873 -5.65228 10803 ft 286 kts 341°
2026-05-07 19:17 52.86761 -5.66209 10491 ft 284 kts 341°
2026-05-07 19:17 52.88644 -5.67177 10191 ft 283 kts 341°
2026-05-07 19:17 52.90504 -5.68151 10037 ft 276 kts 341°
2026-05-07 19:18 52.92326 -5.69110 9768 ft 275 kts 341°
2026-05-07 19:18 52.94144 -5.70066 9485 ft 274 kts 341°
2026-05-07 19:18 52.95960 -5.71021 9195 ft 273 kts 341°
2026-05-07 19:18 52.97750 -5.71964 8874 ft 274 kts 341°
2026-05-07 19:19 52.99585 -5.72927 8506 ft 277 kts 341°
2026-05-07 19:19 53.01418 -5.73889 8204 ft 276 kts 341°
2026-05-07 19:19 53.03243 -5.74850 7919 ft 275 kts 341°
2026-05-07 19:19 53.05066 -5.75810 7630 ft 274 kts 341°
2026-05-07 19:20 53.06879 -5.76766 7342 ft 273 kts 341°
2026-05-07 19:20 53.08685 -5.77719 7063 ft 272 kts 341°
2026-05-07 19:20 53.10486 -5.78671 6777 ft 271 kts 341°
2026-05-07 19:20 53.12257 -5.79610 6502 ft 270 kts 341°
2026-05-07 19:21 53.13464 -5.80249 6312 ft 269 kts 341°
2026-05-07 19:21 53.15814 -5.81494 5937 ft 267 kts 341°
2026-05-07 19:21 53.17580 -5.82431 5660 ft 265 kts 341°
2026-05-07 19:21 53.19336 -5.83359 5389 ft 264 kts 341°
2026-05-07 19:22 53.21073 -5.84287 5127 ft 261 kts 341°
2026-05-07 19:22 53.22217 -5.84896 4954 ft 260 kts 341°
2026-05-07 19:22 53.24523 -5.86122 4590 ft 259 kts 341°
2026-05-07 19:22 53.26235 -5.87033 4328 ft 258 kts 341°
2026-05-07 19:23 53.27364 -5.87635 4160 ft 257 kts 341°
2026-05-07 19:23 53.29594 -5.88824 3932 ft 250 kts 341°
2026-05-07 19:23 53.31228 -5.89696 3807 ft 243 kts 341°
2026-05-07 19:23 53.32818 -5.90544 3694 ft 236 kts 341°
2026-05-07 19:24 53.33865 -5.91105 3626 ft 232 kts 341°
2026-05-07 19:24 53.35359 -5.91905 3528 ft 225 kts 341°
2026-05-07 19:24 53.36823 -5.92683 3422 ft 217 kts 341°
2026-05-07 19:24 53.38252 -5.93451 3222 ft 214 kts 341°
2026-05-07 19:25 53.39624 -5.94303 3042 ft 206 kts 327°
2026-05-07 19:25 53.40428 -5.96105 2894 ft 192 kts 279°
2026-05-07 19:25 53.40555 -5.98321 2825 ft 191 kts 273°
2026-05-07 19:25 53.40702 -6.00531 2699 ft 189 kts 275°
2026-05-07 19:26 53.40845 -6.02718 2581 ft 189 kts 274°
2026-05-07 19:26 53.40965 -6.04899 2493 ft 187 kts 274°
2026-05-07 19:26 53.41079 -6.07078 2313 ft 188 kts 274°
2026-05-07 19:26 53.41192 -6.09235 2073 ft 184 kts 274°
2026-05-07 19:27 53.41302 -6.11343 1826 ft 177 kts 274°
2026-05-07 19:27 53.41405 -6.13302 1600 ft 165 kts 274°
2026-05-07 19:27 53.41502 -6.15154 1411 ft 152 kts 274°
2026-05-07 19:27 53.41592 -6.16842 1228 ft 141 kts 274°
2026-05-07 19:28 53.41678 -6.18482 1013 ft 140 kts 274°
2026-05-07 19:28 53.41760 -6.20086 822 ft 139 kts 274°
2026-05-07 19:28 53.41844 -6.21699 637 ft 137 kts 275°
2026-05-07 19:28 53.41938 -6.23295 469 ft 138 kts 275°
2026-05-07 19:29 53.42018 -6.24886 293 ft 137 kts 275°
2026-05-07 19:29 53.42099 -6.26355 211 ft 111 kts 275°
2026-05-07 19:29 53.42148 -6.27292 214 ft 53 kts 276°
2026-05-07 19:29 53.42197 -6.27828 211 ft 32 kts 294°
2026-05-07 19:30 53.42293 -6.28106 210 ft 16 kts 315°
2026-05-07 19:30 53.42352 -6.28113 210 ft 5 kts 49°
2026-05-07 19:30 53.42362 -6.28051 210 ft 6 kts 90°
2026-05-07 19:30 53.42360 -6.28004 210 ft 0 kts 94°
2026-05-07 19:32 53.42360 -6.28002 210 ft 1 kts 94°
2026-05-07 19:32 53.42357 -6.27943 213 ft 9 kts 95°
2026-05-07 19:32 53.42350 -6.27817 210 ft 12 kts 95°
2026-05-07 19:32 53.42342 -6.27686 210 ft 11 kts 96°
2026-05-07 19:33 53.42336 -6.27558 210 ft 11 kts 95°
2026-05-07 19:33 53.42328 -6.27430 210 ft 12 kts 96°
2026-05-07 19:33 53.42320 -6.27282 213 ft 14 kts 95°
2026-05-07 19:33 53.42310 -6.27098 213 ft 17 kts 95°
2026-05-07 19:34 53.42298 -6.26882 210 ft 20 kts 95°
2026-05-07 19:34 53.42285 -6.26641 210 ft 21 kts 95°
2026-05-07 19:34 53.42272 -6.26401 216 ft 20 kts 95°
2026-05-07 19:34 53.42259 -6.26169 210 ft 20 kts 95°
2026-05-07 19:35 53.42281 -6.25950 214 ft 19 kts 57°
2026-05-07 19:35 53.42368 -6.25788 213 ft 18 kts 46°
2026-05-07 19:35 53.42456 -6.25639 212 ft 18 kts 45°
2026-05-07 19:35 53.42518 -6.25533 217 ft 4 kts 45°
2026-05-07 19:36 53.42519 -6.25531 210 ft 0 kts 45°
2026-05-07 19:36 53.42529 -6.25514 214 ft 6 kts 47°
2026-05-07 19:36 53.42576 -6.25432 210 ft 14 kts 46°
2026-05-07 19:37 53.42655 -6.25299 215 ft 17 kts 45°
2026-05-07 19:37 53.42737 -6.25159 218 ft 17 kts 46°
2026-05-07 19:37 53.42822 -6.25036 211 ft 16 kts 34°
2026-05-07 19:37 53.42880 -6.24940 211 ft 11 kts 46°
2026-05-07 19:38 53.42925 -6.24855 211 ft 8 kts 48°
2026-05-07 19:38 53.42969 -6.24817 210 ft 7 kts
2026-05-07 19:38 53.42998 -6.24813 210 ft 2 kts
2026-05-07 19:38 53.43001 -6.24813 210 ft 0 kts